User: anonymous   Login
Location: Domont
(49.0278°N, 2.3264°E)
Time: 10:52:12
(UTC+00:00)
Language:

NINGXIA-1 10 - Orbit

View from above orbital plane
View from above orbital plane
View from above satellite
View from above satellite

Ground track
Ground track

The orbit data is extracted from the following two-line orbital elements,

1 49022U 21064E   22338.18959620 -.00000030  00000-0  59419-4 0  9994
2 49022  45.0022 296.7966 0008003 214.3545 145.6779 14.08092255 72264
Epoch (UTC): 04 December 2022 04:33:01
Eccentricity: 0.0008003
inclination: 45.0022°
perigee height: 860 km
apogee height: 872 km
right ascension of ascending node: 296.7966°
argument of perigee: 214.3545°
revolutions per day: 14.08092255
mean anomaly at epoch: 145.6779°
orbit number at epoch: 7226

The dashed part of the orbit path shows where the satellite is in the earth's shadow,  

DLR